START_TIME,STEP,MOV.,E45,t_acc.,ALAR?,t_acc.,A12,t_acc.,A24,t_acc.
1979-07-16 15:00:26.360 ,0,0,6.,4.8,296.,4.8,0.,4.8,0.,4.8
1979-07-16 15:00:31.160 ,0,0,7.,4.8,296.,4.8,0.,4.8,0.,4.8
1979-07-16 15:00:35.960 ,0,0,11.,4.8,312.,4.8,0.,4.8,0.,4.8
1979-07-16 15:00:40.760 ,0,0,4.,4.8,288.,4.8,0.,4.8,0.,4.8
1979-07-16 15:00:45.560 ,0,0,6.,4.8,288.,4.8,0.,4.8,0.,4.8
1979-07-16 15:00:50.360 ,2,0,6.,4.8,288.,4.8,0.,4.8,0.,4.8
1979-07-16 15:00:55.160 ,2,0,6.,4.8,280.,4.8,0.,4.8,0.,4.8
1979-07-16 15:00:59.960 ,2,0,5.,4.8,264.,4.8,0.,4.8,0.,4.8
1979-07-16 15:01:04.760 ,2,0,4.,4.8,244.,4.8,0.,4.8,0.,4.8
1979-07-16 15:01:09.560 ,2,0,1.,4.8,264.,4.8,0.,4.8,0.,4.8
1979-07-16 15:01:14.360 ,2,0,5.,4.8,256.,4.8,0.,4.8,0.,4.8
1979-07-16 15:01:19.160 ,2,0,4.,4.8,232.,4.8,0.,4.8,0.,4.8
1979-07-16 15:01:23.960 ,2,0,4.,4.8,264.,4.8,0.,4.8,0.,4.8
1979-07-16 15:01:28.760 ,2,0,5.,4.8,272.,4.8,0.,4.8,0.,4.8
1979-07-16 15:01:33.560 ,2,0,13.,4.8,272.,4.8,0.,4.8,0.,4.8
1979-07-16 15:01:38.360 ,3,0,5.,4.8,264.,4.8,0.,4.8,0.,4.8
1979-07-16 15:01:43.160 ,3,0,3.,4.8,256.,4.8,0.,4.8,0.,4.8
1979-07-16 15:01:47.960 ,3,0,3.,4.8,296.,4.8,0.,4.8,0.,4.8
1979-07-16 15:01:52.760 ,3,0,1.,4.8,272.,4.8,0.,4.8,0.,4.8
1979-07-16 15:01:57.560 ,3,0,3.,4.8,280.,4.8,0.,4.8,0.,4.8
1979-07-16 15:02:02.360 ,3,0,6.,4.8,288.,4.8,0.,4.8,0.,4.8
1979-07-16 15:02:07.160 ,3,0,9.,4.8,272.,4.8,0.,4.8,0.,4.8
1979-07-16 15:02:11.960 ,3,0,4.,4.8,296.,4.8,0.,4.8,0.,4.8
1979-07-16 15:02:16.760 ,3,0,6.,4.8,272.,4.8,0.,4.8,0.,4.8
1979-07-16 15:02:21.560 ,3,0,3.,4.8,304.,4.8,0.,4.8,0.,4.8
1979-07-16 15:02:26.360 ,4,0,4.,4.8,272.,4.8,0.,4.8,0.,4.8
1979-07-16 15:02:31.160 ,4,0,2.,4.8,288.,4.8,0.,4.8,0.,4.8
1979-07-16 15:02:35.960 ,4,0,4.,4.8,280.,4.8,0.,4.8,0.,4.8
1979-07-16 15:02:40.760 ,4,0,7.,4.8,280.,4.8,0.,4.8,0.,4.8
1979-07-16 15:02:45.560 ,4,0,4.,4.8,264.,4.8,0.,4.8,0.,4.8
1979-07-16 15:02:50.360 ,4,0,5.,4.8,280.,4.8,0.,4.8,0.,4.8
1979-07-16 15:02:55.160 ,4,0,1.,4.8,312.,4.8,0.,4.8,0.,4.8
1979-07-16 15:02:59.960 ,4,0,5.,4.8,280.,4.8,0.,4.8,0.,4.8
1979-07-16 15:03:04.760 ,4,0,4.,4.8,236.,4.8,0.,4.8,0.,4.8
1979-07-16 15:03:09.560 ,4,0,1.,4.8,272.,4.8,0.,4.8,0.,4.8
1979-07-16 15:04:02.360 ,0,0,2.,4.8,248.,4.8,0.,4.8,0.,4.8
1979-07-16 15:04:07.160 ,0,0,1.,4.8,244.,4.8,0.,4.8,0.,4.8
1979-07-16 15:04:11.960 ,0,0,3.,4.8,244.,4.8,0.,4.8,0.,4.8
1979-07-16 15:04:16.760 ,0,0,3.,4.8,212.,4.8,0.,4.8,0.,4.8
1979-07-16 15:04:21.560 ,0,0,7.,4.8,240.,4.8,0.,4.8,0.,4.8
1979-07-16 15:04:26.360 ,0,0,3.,4.8,236.,4.8,0.,4.8,0.,4.8
1979-07-16 15:04:31.160 ,0,0,2.,4.8,232.,4.8,0.,4.8,0.,4.8
1979-07-16 15:04:35.960 ,0,0,4.,4.8,252.,4.8,0.,4.8,0.,4.8
1979-07-16 15:04:40.760 ,0,0,1.,4.8,232.,4.8,0.,4.8,0.,4.8
1979-07-16 15:04:45.560 ,0,0,3.,4.8,252.,4.8,0.,4.8,0.,4.8
1979-07-16 15:04:50.360 ,7,0,5.,4.8,228.,4.8,0.,4.8,0.,4.8
1979-07-16 15:04:55.160 ,7,0,0.,4.8,240.,4.8,0.,4.8,0.,4.8
1979-07-16 15:04:59.960 ,7,0,5.,4.8,244.,4.8,0.,4.8,0.,4.8
1979-07-16 15:05:04.760 ,7,0,2.,4.8,256.,4.8,0.,4.8,0.,4.8
1979-07-16 15:05:09.560 ,7,0,6.,4.8,240.,4.8,0.,4.8,0.,4.8
1979-07-16 15:05:14.360 ,7,0,1.,4.8,248.,4.8,0.,4.8,0.,4.8
1979-07-16 15:05:19.160 ,7,0,0.,4.8,256.,4.8,0.,4.8,0.,4.8
1979-07-16 15:05:23.960 ,7,0,1.,4.8,240.,4.8,0.,4.8,0.,4.8
1979-07-16 15:05:28.760 ,7,0,4.,4.8,228.,4.8,0.,4.8,0.,4.8
1979-07-16 15:05:33.560 ,7,0,4.,4.8,244.,4.8,0.,4.8,0.,4.8
1979-07-16 15:05:38.360 ,7,0,3.,4.8,236.,4.8,0.,4.8,0.,4.8
1979-07-16 15:05:43.160 ,7,0,2.,4.8,272.,4.8,0.,4.8,0.,4.8
1979-07-16 15:05:47.960 ,7,0,3.,4.8,236.,4.8,0.,4.8,0.,4.8
1979-07-16 15:05:52.760 ,7,0,4.,4.8,236.,4.8,0.,4.8,0.,4.8
1979-07-16 15:05:57.560 ,7,0,3.,4.8,248.,4.8,0.,4.8,0.,4.8
1979-07-16 15:06:02.360 ,7,0,3.,4.8,244.,4.8,0.,4.8,0.,4.8
1979-07-16 15:06:07.160 ,7,0,3.,4.8,272.,4.8,0.,4.8,0.,4.8
1979-07-16 15:06:11.960 ,7,0,1.,4.8,236.,4.8,0.,4.8,0.,4.8
1979-07-16 15:06:16.760 ,7,0,4.,4.8,236.,4.8,0.,4.8,0.,4.8
1979-07-16 15:06:21.560 ,7,0,2.,4.8,264.,4.8,0.,4.8,0.,4.8
1979-07-16 15:06:26.360 ,6,0,2.,4.8,244.,4.8,0.,4.8,0.,4.8
1979-07-16 15:06:31.160 ,6,0,3.,4.8,272.,4.8,0.,4.8,0.,4.8
1979-07-16 15:06:35.960 ,6,0,0.,4.8,208.,4.8,0.,4.8,0.,4.8
1979-07-16 15:06:40.760 ,6,0,5.,4.8,236.,4.8,0.,4.8,0.,4.8
1979-07-16 15:06:45.560 ,6,0,8.,4.8,224.,4.8,0.,4.8,0.,4.8
1979-07-16 15:06:50.360 ,6,0,4.,4.8,216.,4.8,0.,4.8,0.,4.8
1979-07-16 15:06:55.160 ,6,0,2.,4.8,248.,4.8,0.,4.8,0.,4.8
1979-07-16 15:06:59.960 ,6,0,6.,4.8,240.,4.8,0.,4.8,0.,4.8
1979-07-16 15:07:04.760 ,6,0,4.,4.8,236.,4.8,0.,4.8,0.,4.8
1979-07-16 15:07:09.560 ,6,0,3.,4.8,228.,4.8,0.,4.8,0.,4.8
1979-07-16 15:07:14.360 ,5,0,5.,4.8,232.,4.8,0.,4.8,0.,4.8
1979-07-16 15:07:19.160 ,5,0,5.,4.8,256.,4.8,0.,4.8,0.,4.8
1979-07-16 15:07:23.960 ,5,0,2.,4.8,252.,4.8,0.,4.8,0.,4.8
1979-07-16 15:07:28.760 ,5,0,4.,4.8,244.,4.8,0.,4.8,0.,4.8
1979-07-16 15:07:33.560 ,5,0,5.,4.8,272.,4.8,0.,4.8,0.,4.8
1979-07-16 15:07:38.360 ,5,0,2.,4.8,256.,4.8,0.,4.8,0.,4.8
1979-07-16 15:07:43.160 ,5,0,2.,4.8,252.,4.8,0.,4.8,0.,4.8
1979-07-16 15:07:47.960 ,5,0,3.,4.8,248.,4.8,0.,4.8,0.,4.8
1979-07-16 15:07:52.760 ,5,0,2.,4.8,244.,4.8,0.,4.8,0.,4.8
1979-07-16 15:07:57.560 ,5,0,2.,4.8,252.,4.8,0.,4.8,0.,4.8
1979-07-16 15:08:02.360 ,4,0,8.,4.8,256.,4.8,0.,4.8,0.,4.8
1979-07-16 15:08:07.160 ,4,0,1.,4.8,232.,4.8,0.,4.8,0.,4.8
1979-07-16 15:08:11.960 ,4,0,4.,4.8,248.,4.8,1.,4.8,0.,4.8
1979-07-16 15:08:16.760 ,4,0,5.,4.8,264.,4.8,0.,4.8,0.,4.8
1979-07-16 15:08:21.560 ,4,0,4.,4.8,248.,4.8,0.,4.8,0.,4.8
1979-07-16 15:08:26.360 ,4,0,6.,4.8,264.,4.8,0.,4.8,0.,4.8
1979-07-16 15:08:31.160 ,4,0,4.,4.8,224.,4.8,0.,4.8,0.,4.8
1979-07-16 15:08:35.960 ,4,0,2.,4.8,252.,4.8,0.,4.8,0.,4.8
1979-07-16 15:08:40.760 ,4,0,1.,4.8,228.,4.8,0.,4.8,0.,4.8
1979-07-16 15:08:45.560 ,4,0,0.,4.8,252.,4.8,0.,4.8,0.,4.8
1979-07-16 15:08:50.360 ,3,0,4.,4.8,236.,4.8,0.,4.8,0.,4.8
1979-07-16 15:08:55.160 ,3,0,4.,4.8,224.,4.8,0.,4.8,0.,4.8
1979-07-16 15:08:59.960 ,3,0,5.,4.8,248.,4.8,0.,4.8,0.,4.8
1979-07-16 15:09:04.760 ,3,0,2.,4.8,232.,4.8,0.,4.8,0.,4.8
1979-07-16 15:09:09.560 ,3,0,0.,4.8,264.,4.8,0.,4.8,0.,4.8
1979-07-16 15:09:14.360 ,3,0,4.,4.8,264.,4.8,0.,4.8,0.,4.8
1979-07-16 15:09:19.160 ,3,0,3.,4.8,264.,4.8,0.,4.8,0.,4.8
1979-07-16 15:09:23.960 ,3,0,3.,4.8,296.,4.8,0.,4.8,0.,4.8
1979-07-16 15:09:28.760 ,3,0,5.,4.8,264.,4.8,0.,4.8,0.,4.8
1979-07-16 15:09:33.560 ,3,0,2.,4.8,264.,4.8,0.,4.8,0.,4.8
1979-07-16 15:09:38.360 ,2,0,7.,4.8,248.,4.8,0.,4.8,0.,4.8
1979-07-16 15:09:43.160 ,2,0,3.,4.8,208.,4.8,0.,4.8,0.,4.8
1979-07-16 15:09:47.960 ,2,0,5.,4.8,224.,4.8,0.,4.8,0.,4.8
1979-07-16 15:09:52.760 ,2,0,2.,4.8,224.,4.8,0.,4.8,0.,4.8
1979-07-16 15:09:57.560 ,2,0,3.,4.8,220.,4.8,0.,4.8,0.,4.8
1979-07-16 15:10:02.360 ,2,0,5.,4.8,252.,4.8,0.,4.8,0.,4.8
1979-07-16 15:10:07.160 ,2,0,2.,4.8,220.,4.8,0.,4.8,0.,4.8
1979-07-16 15:10:11.960 ,2,0,5.,4.8,248.,4.8,0.,4.8,0.,4.8
1979-07-16 15:10:16.760 ,2,0,2.,4.8,252.,4.8,0.,4.8,0.,4.8
1979-07-16 15:10:21.560 ,2,0,4.,4.8,220.,4.8,0.,4.8,0.,4.8
1979-07-16 15:10:26.360 ,1,0,5.,4.8,240.,4.8,0.,4.8,0.,4.8
1979-07-16 15:10:31.160 ,1,0,4.,4.8,212.,4.8,0.,4.8,0.,4.8
1979-07-16 15:10:35.960 ,1,0,0.,4.8,232.,4.8,0.,4.8,0.,4.8
1979-07-16 15:10:40.760 ,1,0,2.,4.8,248.,4.8,0.,4.8,0.,4.8
1979-07-16 15:10:45.560 ,1,0,3.,4.8,224.,4.8,0.,4.8,0.,4.8
1979-07-16 15:10:50.360 ,1,0,1.,4.8,240.,4.8,0.,4.8,0.,4.8
1979-07-16 15:10:55.160 ,1,0,4.,4.8,224.,4.8,0.,4.8,0.,4.8
1979-07-16 15:10:59.960 ,1,0,1.,4.8,220.,4.8,0.,4.8,0.,4.8
1979-07-16 15:11:04.760 ,1,0,3.,4.8,188.,4.8,0.,4.8,0.,4.8
1979-07-16 15:11:09.560 ,1,0,2.,4.8,244.,4.8,0.,4.8,0.,4.8
1979-07-16 15:11:14.360 ,0,0,3.,4.8,200.,4.8,0.,4.8,0.,4.8
1979-07-16 15:11:19.160 ,0,0,3.,4.8,204.,4.8,0.,4.8,0.,4.8
1979-07-16 15:11:23.960 ,0,0,4.,4.8,216.,4.8,0.,4.8,0.,4.8
1979-07-16 15:11:28.760 ,0,0,3.,4.8,196.,4.8,0.,4.8,0.,4.8
1979-07-16 15:11:33.560 ,0,0,2.,4.8,216.,4.8,0.,4.8,0.,4.8
1979-07-16 15:11:38.360 ,0,0,1.,4.8,244.,4.8,0.,4.8,0.,4.8
1979-07-16 15:11:43.160 ,0,0,4.,4.8,212.,4.8,0.,4.8,0.,4.8
1979-07-16 15:11:47.960 ,0,0,4.,4.8,216.,4.8,0.,4.8,0.,4.8
1979-07-16 15:11:52.760 ,0,0,6.,4.8,252.,4.8,0.,4.8,0.,4.8
1979-07-16 15:11:57.560 ,0,0,5.,4.8,248.,4.8,0.,4.8,0.,4.8
1979-07-16 15:12:02.360 ,0,0,5.,4.8,228.,4.8,0.,4.8,0.,4.8
1979-07-16 15:12:07.160 ,0,0,7.,4.8,236.,4.8,0.,4.8,0.,4.8
1979-07-16 15:12:11.960 ,0,0,5.,4.8,232.,4.8,0.,4.8,0.,4.8
1979-07-16 15:12:16.760 ,0,0,5.,4.8,252.,4.8,0.,4.8,0.,4.8
1979-07-16 15:12:21.560 ,0,0,6.,4.8,232.,4.8,0.,4.8,0.,4.8
1979-07-16 15:12:26.360 ,0,0,4.,4.8,228.,4.8,0.,4.8,0.,4.8
1979-07-16 15:12:31.160 ,0,0,5.,4.8,244.,4.8,0.,4.8,0.,4.8
1979-07-16 15:12:35.960 ,0,0,1.,4.8,264.,4.8,0.,4.8,0.,4.8
1979-07-16 15:12:40.760 ,0,0,1.,4.8,212.,4.8,0.,4.8,0.,4.8
1979-07-16 15:12:45.560 ,0,0,1.,4.8,228.,4.8,0.,4.8,0.,4.8
1979-07-16 15:12:50.360 ,1,0,2.,4.8,244.,4.8,0.,4.8,0.,4.8
1979-07-16 15:12:55.160 ,1,0,5.,4.8,188.,4.8,0.,4.8,0.,4.8
1979-07-16 15:12:59.960 ,1,0,4.,4.8,212.,4.8,0.,4.8,0.,4.8
1979-07-16 15:13:04.760 ,1,0,1.,4.8,184.,4.8,0.,4.8,0.,4.8
1979-07-16 15:13:09.560 ,1,0,3.,4.8,220.,4.8,0.,4.8,0.,4.8
1979-07-16 15:13:14.360 ,1,0,1.,4.8,204.,4.8,0.,4.8,0.,4.8
1979-07-16 15:13:19.160 ,1,0,2.,4.8,196.,4.8,0.,4.8,0.,4.8
1979-07-16 15:13:23.960 ,1,0,2.,4.8,188.,4.8,0.,4.8,0.,4.8
1979-07-16 15:13:28.760 ,1,0,3.,4.8,208.,4.8,0.,4.8,0.,4.8
1979-07-16 15:13:33.560 ,1,0,2.,4.8,204.,4.8,0.,4.8,0.,4.8
1979-07-16 15:13:38.360 ,2,0,2.,4.8,220.,4.8,0.,4.8,0.,4.8
1979-07-16 15:13:43.160 ,2,0,2.,4.8,176.,4.8,0.,4.8,0.,4.8
1979-07-16 15:13:47.960 ,2,0,1.,4.8,220.,4.8,0.,4.8,0.,4.8
1979-07-16 15:13:52.760 ,2,0,2.,4.8,236.,4.8,0.,4.8,0.,4.8
1979-07-16 15:13:57.560 ,2,0,1.,4.8,208.,4.8,0.,4.8,0.,4.8
1979-07-16 15:14:02.360 ,2,0,2.,4.8,220.,4.8,0.,4.8,0.,4.8
1979-07-16 15:14:07.160 ,2,0,2.,4.8,220.,4.8,0.,4.8,0.,4.8
1979-07-16 15:14:11.960 ,2,0,3.,4.8,232.,4.8,0.,4.8,0.,4.8
1979-07-16 15:14:16.760 ,2,0,1.,4.8,204.,4.8,0.,4.8,0.,4.8
1979-07-16 15:14:21.560 ,2,0,3.,4.8,204.,4.8,0.,4.8,0.,4.8
1979-07-16 15:14:26.360 ,3,0,0.,4.8,240.,4.8,0.,4.8,0.,4.8
1979-07-16 15:14:31.160 ,3,0,1.,4.8,216.,4.8,0.,4.8,0.,4.8
1979-07-16 15:14:35.960 ,3,0,2.,4.8,256.,4.8,0.,4.8,0.,4.8
1979-07-16 15:14:40.760 ,3,0,5.,4.8,204.,4.8,0.,4.8,0.,4.8
1979-07-16 15:14:45.560 ,3,0,0.,4.8,240.,4.8,0.,4.8,0.,4.8
1979-07-16 15:14:50.360 ,3,0,3.,4.8,208.,4.8,0.,4.8,0.,4.8
1979-07-16 15:14:55.160 ,3,0,1.,4.8,232.,4.8,0.,4.8,0.,4.8
1979-07-16 15:14:59.960 ,3,0,1.,4.8,244.,4.8,0.,4.8,0.,4.8
1979-07-16 15:15:04.760 ,3,0,5.,4.8,240.,4.8,0.,4.8,0.,4.8
1979-07-16 15:15:09.560 ,3,0,1.,4.8,216.,4.8,0.,4.8,0.,4.8
1979-07-16 15:15:14.360 ,4,0,0.,4.8,200.,4.8,0.,4.8,0.,4.8
1979-07-16 15:15:19.160 ,4,0,1.,4.8,204.,4.8,0.,4.8,0.,4.8
1979-07-16 15:15:23.960 ,4,0,2.,4.8,212.,4.8,0.,4.8,0.,4.8
1979-07-16 15:15:28.760 ,4,0,1.,4.8,224.,4.8,0.,4.8,0.,4.8
1979-07-16 15:15:33.560 ,4,0,3.,4.8,200.,4.8,0.,4.8,0.,4.8
1979-07-16 15:15:38.360 ,4,0,0.,4.8,228.,4.8,0.,4.8,0.,4.8
1979-07-16 15:15:43.160 ,4,0,1.,4.8,204.,4.8,0.,4.8,0.,4.8
1979-07-16 15:15:47.960 ,4,0,1.,4.8,220.,4.8,0.,4.8,0.,4.8
1979-07-16 15:15:52.760 ,4,0,2.,4.8,196.,4.8,0.,4.8,0.,4.8
1979-07-16 15:15:57.560 ,4,0,1.,4.8,196.,4.8,0.,4.8,0.,4.8
1979-07-16 15:16:02.360 ,5,0,1.,4.8,216.,4.8,1.,4.8,0.,4.8
1979-07-16 15:16:07.160 ,5,0,1.,4.8,196.,4.8,0.,4.8,0.,4.8
1979-07-16 15:16:11.960 ,5,0,2.,4.8,192.,4.8,0.,4.8,0.,4.8
1979-07-16 15:16:16.760 ,5,0,1.,4.8,196.,4.8,0.,4.8,0.,4.8
1979-07-16 15:16:21.560 ,5,0,0.,4.8,204.,4.8,0.,4.8,0.,4.8
1979-07-16 15:16:26.360 ,5,0,3.,4.8,184.,4.8,0.,4.8,0.,4.8
1979-07-16 15:16:31.160 ,5,0,0.,4.8,180.,4.8,0.,4.8,0.,4.8
1979-07-16 15:16:35.960 ,5,0,0.,4.8,188.,4.8,0.,4.8,0.,4.8
1979-07-16 15:16:40.760 ,5,0,0.,4.8,184.,4.8,0.,4.8,0.,4.8
1979-07-16 15:16:45.560 ,5,0,1.,4.8,208.,4.8,0.,4.8,0.,4.8
1979-07-16 15:16:50.360 ,6,0,3.,4.8,224.,4.8,0.,4.8,0.,4.8
1979-07-16 15:16:55.160 ,6,0,3.,4.8,192.,4.8,0.,4.8,0.,4.8
1979-07-16 15:16:59.960 ,6,0,1.,4.8,184.,4.8,0.,4.8,0.,4.8
1979-07-16 15:17:04.760 ,6,0,1.,4.8,212.,4.8,0.,4.8,0.,4.8
1979-07-16 15:17:09.560 ,6,0,1.,4.8,208.,4.8,0.,4.8,0.,4.8
1979-07-16 15:17:14.360 ,6,0,2.,4.8,196.,4.8,0.,4.8,0.,4.8
1979-07-16 15:17:19.160 ,6,0,1.,4.8,220.,4.8,0.,4.8,0.,4.8
1979-07-16 15:17:23.960 ,6,0,2.,4.8,212.,4.8,0.,4.8,0.,4.8
1979-07-16 15:17:28.760 ,6,0,2.,4.8,220.,4.8,0.,4.8,0.,4.8
1979-07-16 15:17:33.560 ,6,0,4.,4.8,188.,4.8,0.,4.8,0.,4.8
1979-07-16 15:17:38.360 ,7,0,0.,4.8,176.,4.8,0.,4.8,0.,4.8
1979-07-16 15:17:43.160 ,7,0,3.,4.8,220.,4.8,0.,4.8,0.,4.8
1979-07-16 15:17:47.960 ,7,0,1.,4.8,216.,4.8,0.,4.8,0.,4.8
1979-07-16 15:17:52.760 ,7,0,3.,4.8,224.,4.8,0.,4.8,0.,4.8
1979-07-16 15:17:57.560 ,7,0,2.,4.8,224.,4.8,0.,4.8,0.,4.8
1979-07-16 15:18:02.360 ,7,0,1.,4.8,232.,4.8,0.,4.8,0.,4.8
1979-07-16 15:18:07.160 ,7,0,1.,4.8,220.,4.8,0.,4.8,0.,4.8
1979-07-16 15:18:11.960 ,7,0,1.,4.8,220.,4.8,0.,4.8,0.,4.8
1979-07-16 15:18:16.760 ,7,0,0.,4.8,216.,4.8,0.,4.8,0.,4.8
1979-07-16 15:18:21.560 ,7,0,2.,4.8,228.,4.8,0.,4.8,0.,4.8
1979-07-16 15:18:26.360 ,7,0,2.,4.8,196.,4.8,0.,4.8,0.,4.8
1979-07-16 15:18:31.160 ,7,0,2.,4.8,216.,4.8,0.,4.8,0.,4.8
1979-07-16 15:18:35.960 ,7,0,2.,4.8,204.,4.8,0.,4.8,0.,4.8
1979-07-16 15:18:40.760 ,7,0,2.,4.8,192.,4.8,0.,4.8,0.,4.8
1979-07-16 15:18:45.560 ,7,0,2.,4.8,224.,4.8,0.,4.8,0.,4.8
1979-07-16 15:18:50.360 ,7,0,2.,4.8,220.,4.8,0.,4.8,0.,4.8
1979-07-16 15:18:55.160 ,7,0,2.,4.8,240.,4.8,0.,4.8,0.,4.8
1979-07-16 15:18:59.960 ,7,0,3.,4.8,212.,4.8,0.,4.8,0.,4.8
1979-07-16 15:19:04.760 ,7,0,1.,4.8,208.,4.8,0.,4.8,0.,4.8
1979-07-16 15:19:09.560 ,7,0,3.,4.8,224.,4.8,0.,4.8,0.,4.8
1979-07-16 15:19:14.360 ,6,0,2.,4.8,172.,4.8,0.,4.8,0.,4.8
1979-07-16 15:19:19.160 ,6,0,3.,4.8,220.,4.8,0.,4.8,0.,4.8
1979-07-16 15:19:23.960 ,6,0,1.,4.8,224.,4.8,0.,4.8,0.,4.8
1979-07-16 15:19:28.760 ,6,0,4.,4.8,208.,4.8,0.,4.8,0.,4.8
1979-07-16 15:19:33.560 ,6,0,3.,4.8,232.,4.8,0.,4.8,0.,4.8
1979-07-16 15:19:38.360 ,6,0,3.,4.8,216.,4.8,0.,4.8,0.,4.8
1979-07-16 15:19:43.160 ,6,0,0.,4.8,220.,4.8,0.,4.8,0.,4.8
1979-07-16 15:19:47.960 ,6,0,2.,4.8,232.,4.8,0.,4.8,0.,4.8
1979-07-16 15:19:52.760 ,6,0,1.,4.8,232.,4.8,0.,4.8,0.,4.8
1979-07-16 15:19:57.560 ,6,0,2.,4.8,248.,4.8,0.,4.8,0.,4.8
1979-07-16 15:20:02.360 ,5,0,2.,4.8,192.,4.8,0.,4.8,0.,4.8
1979-07-16 15:20:07.160 ,5,0,5.,4.8,208.,4.8,0.,4.8,0.,4.8
1979-07-16 15:20:11.960 ,5,0,5.,4.8,232.,4.8,0.,4.8,0.,4.8
1979-07-16 15:20:16.760 ,5,0,0.,4.8,200.,4.8,0.,4.8,0.,4.8
1979-07-16 15:20:21.560 ,5,0,4.,4.8,208.,4.8,0.,4.8,0.,4.8
1979-07-16 15:20:26.360 ,5,0,8.,4.8,204.,4.8,0.,4.8,0.,4.8
1979-07-16 15:20:31.160 ,5,0,3.,4.8,236.,4.8,0.,4.8,0.,4.8
1979-07-16 15:20:35.960 ,5,0,2.,4.8,212.,4.8,0.,4.8,0.,4.8
1979-07-16 15:20:40.760 ,5,0,3.,4.8,200.,4.8,0.,4.8,0.,4.8
1979-07-16 15:20:45.560 ,5,0,0.,4.8,228.,4.8,0.,4.8,0.,4.8
1979-07-16 15:20:50.360 ,4,0,2.,4.8,224.,4.8,0.,4.8,0.,4.8
1979-07-16 15:20:55.160 ,4,0,4.,4.8,224.,4.8,0.,4.8,0.,4.8
1979-07-16 15:20:59.960 ,4,0,3.,4.8,204.,4.8,0.,4.8,0.,4.8
1979-07-16 15:21:04.760 ,4,0,5.,4.8,228.,4.8,0.,4.8,0.,4.8
1979-07-16 15:21:09.560 ,4,0,6.,4.8,232.,4.8,0.,4.8,0.,4.8
1979-07-16 15:21:14.360 ,4,0,2.,4.8,232.,4.8,0.,4.8,0.,4.8
1979-07-16 15:21:19.160 ,4,0,4.,4.8,204.,4.8,0.,4.8,0.,4.8
1979-07-16 15:21:23.960 ,4,0,2.,4.8,220.,4.8,0.,4.8,0.,4.8
1979-07-16 15:21:28.760 ,4,0,3.,4.8,224.,4.8,0.,4.8,0.,4.8
1979-07-16 15:21:33.560 ,4,0,5.,4.8,228.,4.8,0.,4.8,0.,4.8
1979-07-16 15:21:38.360 ,3,0,3.,4.8,192.,4.8,0.,4.8,0.,4.8
1979-07-16 15:21:43.160 ,3,0,5.,4.8,216.,4.8,0.,4.8,0.,4.8
1979-07-16 15:21:47.960 ,3,0,1.,4.8,224.,4.8,0.,4.8,0.,4.8
1979-07-16 15:21:52.760 ,3,0,5.,4.8,216.,4.8,0.,4.8,0.,4.8
1979-07-16 15:21:57.560 ,3,0,1.,4.8,244.,4.8,0.,4.8,0.,4.8
1979-07-16 15:22:02.360 ,3,0,4.,4.8,204.,4.8,0.,4.8,0.,4.8
1979-07-16 15:22:07.160 ,3,0,2.,4.8,236.,4.8,0.,4.8,0.,4.8
1979-07-16 15:22:11.960 ,3,0,1.,4.8,240.,4.8,0.,4.8,0.,4.8
1979-07-16 15:22:16.760 ,3,0,0.,4.8,228.,4.8,0.,4.8,0.,4.8
1979-07-16 15:22:21.560 ,3,0,1.,4.8,224.,4.8,0.,4.8,0.,4.8
1979-07-16 15:22:26.360 ,2,0,5.,4.8,236.,4.8,0.,4.8,0.,4.8
1979-07-16 15:22:31.160 ,2,0,2.,4.8,228.,4.8,0.,4.8,0.,4.8
1979-07-16 15:22:35.960 ,2,0,2.,4.8,220.,4.8,0.,4.8,0.,4.8
1979-07-16 15:22:40.760 ,2,0,2.,4.8,188.,4.8,0.,4.8,0.,4.8
1979-07-16 15:22:45.560 ,2,0,3.,4.8,196.,4.8,0.,4.8,0.,4.8
1979-07-16 15:22:50.360 ,2,0,1.,4.8,204.,4.8,0.,4.8,0.,4.8
1979-07-16 15:22:55.160 ,2,0,1.,4.8,192.,4.8,0.,4.8,0.,4.8
1979-07-16 15:22:59.960 ,2,0,3.,4.8,196.,4.8,0.,4.8,0.,4.8
1979-07-16 15:23:04.760 ,2,0,0.,4.8,188.,4.8,0.,4.8,0.,4.8
1979-07-16 15:23:09.560 ,2,0,0.,4.8,192.,4.8,0.,4.8,0.,4.8
1979-07-16 15:23:14.360 ,1,0,2.,4.8,216.,4.8,0.,4.8,0.,4.8
1979-07-16 15:23:19.160 ,1,0,0.,4.8,200.,4.8,0.,4.8,0.,4.8
1979-07-16 15:23:23.960 ,1,0,1.,4.8,220.,4.8,0.,4.8,0.,4.8
1979-07-16 15:23:28.760 ,1,0,2.,4.8,204.,4.8,0.,4.8,0.,4.8
1979-07-16 15:23:33.560 ,1,0,2.,4.8,208.,4.8,0.,4.8,0.,4.8
1979-07-16 15:23:38.360 ,1,0,2.,4.8,196.,4.8,0.,4.8,0.,4.8
1979-07-16 15:23:43.160 ,1,0,0.,4.8,196.,4.8,0.,4.8,0.,4.8
1979-07-16 15:23:47.960 ,1,0,1.,4.8,224.,4.8,0.,4.8,0.,4.8
1979-07-16 15:23:52.760 ,1,0,1.,4.8,220.,4.8,0.,4.8,0.,4.8
1979-07-16 15:23:57.560 ,1,0,1.,4.8,188.,4.8,0.,4.8,0.,4.8
1979-07-16 15:24:02.360 ,0,0,2.,4.8,232.,4.8,0.,4.8,0.,4.8
1979-07-16 15:24:07.160 ,0,0,3.,4.8,208.,4.8,0.,4.8,0.,4.8
1979-07-16 15:24:11.960 ,0,0,1.,4.8,216.,4.8,0.,4.8,0.,4.8
1979-07-16 15:24:16.760 ,0,0,1.,4.8,204.,4.8,0.,4.8,0.,4.8
1979-07-16 15:24:21.560 ,0,0,0.,4.8,220.,4.8,0.,4.8,0.,4.8
1979-07-16 15:24:26.360 ,0,0,1.,4.8,256.,4.8,0.,4.8,0.,4.8
1979-07-16 15:24:31.160 ,0,0,2.,4.8,280.,4.8,0.,4.8,0.,4.8
1979-07-16 15:24:35.960 ,0,0,3.,4.8,252.,4.8,0.,4.8,0.,4.8
1979-07-16 15:24:40.760 ,0,0,3.,4.8,248.,4.8,0.,4.8,0.,4.8
1979-07-16 15:24:45.560 ,0,0,1.,4.8,296.,4.8,0.,4.8,0.,4.8
1979-07-16 15:24:50.360 ,0,0,5.,4.8,264.,4.8,0.,4.8,0.,4.8
1979-07-16 15:24:55.160 ,0,0,2.,4.8,248.,4.8,1.,4.8,0.,4.8
1979-07-16 15:24:59.960 ,0,0,1.,4.8,232.,4.8,0.,4.8,0.,4.8
1979-07-16 15:25:04.760 ,0,0,3.,4.8,256.,4.8,0.,4.8,0.,4.8
1979-07-16 15:25:09.560 ,0,0,4.,4.8,220.,4.8,0.,4.8,0.,4.8
1979-07-16 15:25:14.360 ,0,0,0.,4.8,228.,4.8,0.,4.8,0.,4.8
1979-07-16 15:25:19.160 ,0,0,2.,4.8,272.,4.8,0.,4.8,0.,4.8
1979-07-16 15:25:23.960 ,0,0,5.,4.8,248.,4.8,0.,4.8,0.,4.8
1979-07-16 15:25:28.760 ,0,0,2.,4.8,232.,4.8,0.,4.8,0.,4.8
1979-07-16 15:25:33.560 ,0,0,0.,4.8,236.,4.8,0.,4.8,0.,4.8
1979-07-16 15:25:38.360 ,1,0,1.,4.8,248.,4.8,0.,4.8,0.,4.8
1979-07-16 15:25:43.160 ,1,0,1.,4.8,228.,4.8,0.,4.8,0.,4.8
1979-07-16 15:25:47.960 ,1,0,3.,4.8,216.,4.8,0.,4.8,0.,4.8
1979-07-16 15:25:52.760 ,1,0,4.,4.8,204.,4.8,0.,4.8,0.,4.8
1979-07-16 15:25:57.560 ,1,0,2.,4.8,204.,4.8,0.,4.8,0.,4.8
1979-07-16 15:26:02.360 ,1,0,3.,4.8,196.,4.8,1.,4.8,0.,4.8
1979-07-16 15:26:07.160 ,1,0,2.,4.8,176.,4.8,0.,4.8,0.,4.8
1979-07-16 15:26:11.960 ,1,0,0.,4.8,184.,4.8,0.,4.8,0.,4.8
1979-07-16 15:26:16.760 ,1,0,2.,4.8,224.,4.8,0.,4.8,0.,4.8
1979-07-16 15:26:21.560 ,1,0,3.,4.8,208.,4.8,0.,4.8,0.,4.8
1979-07-16 15:26:26.360 ,2,0,0.,4.8,196.,4.8,0.,4.8,0.,4.8
1979-07-16 15:26:31.160 ,2,0,4.,4.8,196.,4.8,0.,4.8,0.,4.8
1979-07-16 15:26:35.960 ,2,0,3.,4.8,184.,4.8,0.,4.8,0.,4.8
1979-07-16 15:26:40.760 ,2,0,1.,4.8,200.,4.8,0.,4.8,0.,4.8
1979-07-16 15:26:45.560 ,2,0,2.,4.8,208.,4.8,0.,4.8,0.,4.8
1979-07-16 15:26:50.360 ,2,0,1.,4.8,192.,4.8,0.,4.8,0.,4.8
1979-07-16 15:26:55.160 ,2,0,5.,4.8,224.,4.8,0.,4.8,0.,4.8
1979-07-16 15:26:59.960 ,2,0,2.,4.8,196.,4.8,0.,4.8,0.,4.8
1979-07-16 15:27:04.760 ,2,0,1.,4.8,196.,4.8,0.,4.8,0.,4.8
1979-07-16 15:27:09.560 ,2,0,2.,4.8,212.,4.8,0.,4.8,0.,4.8
1979-07-16 15:27:14.360 ,3,0,7.,4.8,200.,4.8,0.,4.8,0.,4.8
1979-07-16 15:27:19.160 ,3,0,1.,4.8,212.,4.8,0.,4.8,0.,4.8
1979-07-16 15:27:23.960 ,3,0,1.,4.8,220.,4.8,0.,4.8,0.,4.8
1979-07-16 15:27:28.760 ,3,0,0.,4.8,204.,4.8,0.,4.8,0.,4.8
1979-07-16 15:27:33.560 ,3,0,2.,4.8,232.,4.8,0.,4.8,0.,4.8
1979-07-16 15:27:38.360 ,3,0,3.,4.8,200.,4.8,0.,4.8,0.,4.8
1979-07-16 15:27:43.160 ,3,0,2.,4.8,220.,4.8,0.,4.8,0.,4.8
1979-07-16 15:27:47.960 ,3,0,2.,4.8,232.,4.8,0.,4.8,0.,4.8
1979-07-16 15:27:52.760 ,3,0,0.,4.8,196.,4.8,0.,4.8,0.,4.8
1979-07-16 15:27:57.560 ,3,0,0.,4.8,184.,4.8,0.,4.8,0.,4.8
1979-07-16 15:28:02.360 ,4,0,2.,4.8,184.,4.8,0.,4.8,0.,4.8
1979-07-16 15:28:07.160 ,4,0,0.,4.8,208.,4.8,0.,4.8,0.,4.8
1979-07-16 15:28:11.960 ,4,0,0.,4.8,216.,4.8,0.,4.8,0.,4.8
1979-07-16 15:28:16.760 ,4,0,1.,4.8,180.,4.8,0.,4.8,0.,4.8
1979-07-16 15:28:21.560 ,4,0,4.,4.8,240.,4.8,0.,4.8,0.,4.8
1979-07-16 15:28:26.360 ,4,0,0.,4.8,192.,4.8,0.,4.8,0.,4.8
1979-07-16 15:28:31.160 ,4,0,1.,4.8,204.,4.8,0.,4.8,0.,4.8
1979-07-16 15:28:35.960 ,4,0,4.,4.8,220.,4.8,0.,4.8,0.,4.8
1979-07-16 15:28:40.760 ,4,0,0.,4.8,224.,4.8,0.,4.8,0.,4.8
1979-07-16 15:28:45.560 ,4,0,3.,4.8,216.,4.8,0.,4.8,0.,4.8
1979-07-16 15:28:50.360 ,5,0,3.,4.8,248.,4.8,0.,4.8,0.,4.8
1979-07-16 15:28:55.160 ,5,0,0.,4.8,220.,4.8,0.,4.8,0.,4.8
1979-07-16 15:28:59.960 ,5,0,5.,4.8,232.,4.8,0.,4.8,0.,4.8
1979-07-16 15:29:04.760 ,5,0,1.,4.8,240.,4.8,0.,4.8,0.,4.8
1979-07-16 15:29:09.560 ,5,0,3.,4.8,244.,4.8,0.,4.8,0.,4.8
1979-07-16 15:29:14.360 ,5,0,4.,4.8,248.,4.8,0.,4.8,0.,4.8
1979-07-16 15:29:19.160 ,5,0,6.,4.8,228.,4.8,0.,4.8,0.,4.8
1979-07-16 15:29:23.960 ,5,0,5.,4.8,248.,4.8,0.,4.8,0.,4.8
1979-07-16 15:29:28.760 ,5,0,5.,4.8,248.,4.8,0.,4.8,0.,4.8
1979-07-16 15:29:33.560 ,5,0,6.,4.8,280.,4.8,0.,4.8,0.,4.8
1979-07-16 15:29:38.360 ,6,0,4.,4.8,280.,4.8,0.,4.8,0.,4.8
1979-07-16 15:29:43.160 ,6,0,4.,4.8,288.,4.8,0.,4.8,0.,4.8
1979-07-16 15:29:47.960 ,6,0,7.,4.8,312.,4.8,0.,4.8,0.,4.8
1979-07-16 15:29:52.760 ,6,0,4.,4.8,312.,4.8,0.,4.8,0.,4.8
1979-07-16 15:29:57.560 ,6,0,11.,4.8,312.,4.8,0.,4.8,0.,4.8
1979-07-16 15:30:02.360 ,6,0,7.,4.8,304.,4.8,0.,4.8,0.,4.8
1979-07-16 15:30:07.160 ,6,0,1.,4.8,328.,4.8,0.,4.8,0.,4.8
1979-07-16 15:30:11.960 ,6,0,5.,4.8,320.,4.8,0.,4.8,0.,4.8
1979-07-16 15:30:16.760 ,6,0,4.,4.8,304.,4.8,0.,4.8,0.,4.8
1979-07-16 15:30:21.560 ,6,0,5.,4.8,320.,4.8,0.,4.8,0.,4.8
1979-07-16 15:30:26.360 ,7,0,2.,4.8,312.,4.8,0.,4.8,0.,4.8
1979-07-16 15:30:31.160 ,7,0,7.,4.8,328.,4.8,0.,4.8,0.,4.8
1979-07-16 15:30:35.960 ,7,0,8.,4.8,312.,4.8,0.,4.8,0.,4.8
1979-07-16 15:30:40.760 ,7,0,3.,4.8,376.,4.8,0.,4.8,0.,4.8
1979-07-16 15:30:45.560 ,7,0,9.,4.8,328.,4.8,0.,4.8,0.,4.8
1979-07-16 15:30:50.360 ,7,0,7.,4.8,328.,4.8,0.,4.8,0.,4.8
1979-07-16 15:30:55.160 ,7,0,6.,4.8,384.,4.8,0.,4.8,0.,4.8
1979-07-16 15:30:59.960 ,7,0,9.,4.8,360.,4.8,0.,4.8,0.,4.8
1979-07-16 15:31:04.760 ,7,0,6.,4.8,360.,4.8,0.,4.8,0.,4.8
1979-07-16 15:31:09.560 ,7,0,11.,4.8,368.,4.8,0.,4.8,0.,4.8
1979-07-16 15:31:14.360 ,0,0,9.,4.8,424.,4.8,0.,4.8,0.,4.8
1979-07-16 15:31:19.160 ,0,0,7.,4.8,368.,4.8,0.,4.8,0.,4.8
1979-07-16 15:31:23.960 ,0,0,13.,4.8,392.,4.8,0.,4.8,0.,4.8
1979-07-16 15:31:28.760 ,0,0,9.,4.8,432.,4.8,0.,4.8,0.,4.8
1979-07-16 15:31:33.560 ,0,0,5.,4.8,424.,4.8,0.,4.8,0.,4.8
1979-07-16 15:31:38.360 ,0,0,6.,4.8,440.,4.8,0.,4.8,0.,4.8
1979-07-16 15:31:43.160 ,0,0,14.,4.8,384.,4.8,0.,4.8,0.,4.8
1979-07-16 15:31:47.960 ,0,0,14.,4.8,384.,4.8,0.,4.8,0.,4.8
1979-07-16 15:31:52.760 ,0,0,16.,4.8,432.,4.8,0.,4.8,0.,4.8
1979-07-16 15:31:57.560 ,0,0,11.,4.8,400.,4.8,0.,4.8,0.,4.8
1979-07-16 15:32:02.360 ,4,1,11.,4.8,400.,4.8,0.,4.8,0.,4.8
1979-07-16 15:32:07.160 ,4,1,7.,4.8,376.,4.8,0.,4.8,0.,4.8
1979-07-16 15:32:11.960 ,4,1,6.,4.8,424.,4.8,0.,4.8,0.,4.8
1979-07-16 15:32:16.760 ,4,1,12.,4.8,416.,4.8,0.,4.8,0.,4.8
1979-07-16 15:32:21.560 ,4,1,7.,4.8,432.,4.8,0.,4.8,0.,4.8
1979-07-16 15:32:26.360 ,7,1,13.,4.8,456.,4.8,0.,4.8,0.,4.8
1979-07-16 15:32:31.160 ,7,1,16.,4.8,424.,4.8,0.,4.8,0.,4.8
1979-07-16 15:32:35.960 ,7,1,12.,4.8,440.,4.8,0.,4.8,0.,4.8
1979-07-16 15:32:40.760 ,7,1,15.,4.8,424.,4.8,0.,4.8,0.,4.8
1979-07-16 15:32:45.560 ,7,1,12.,4.8,432.,4.8,0.,4.8,0.,4.8
1979-07-16 15:32:50.360 ,3,1,8.,4.8,432.,4.8,0.,4.8,0.,4.8
1979-07-16 15:32:55.160 ,3,1,6.,4.8,400.,4.8,0.,4.8,0.,4.8
1979-07-16 15:32:59.960 ,3,1,11.,4.8,416.,4.8,0.,4.8,0.,4.8